Location: Newark
(46.7000°N, 60.6000°W)
Time: 05:53:01
(UTC+00:00)

Transit 2A Rocket - Pass Details

Date: 04 November 2020
Orbit: 588 x 914 km, 66.7° (Epoch: 27 November)

Event Time Altitude Azimuth Distance (km) Brightness Sun altitude
Rises 19:30:32 0° 329° (NNW) 3,316 8.2 9.8°
Reaches altitude 10° 19:33:15 10° 338° (NNW) 2,326 7.4 9.5°
Maximum altitude 19:38:08 36° 45° (NE) 1,132 5.5 8.8°
Drops below altitude 10° 19:42:35 10° 112° (ESE) 2,116 7.0 8.1°
Sets 19:44:57 0° 121° (ESE) 2,978 7.8 7.8°
